Location: Newark
(52.3500°N, 175.9667°E)
Time: 07:32:05
(UTC+00:00)

N. Korean satellite - Pass Details

Date: 18 November 2019
Orbit: 455 x 507 km, 97.2° (Epoch: 12 December)

Event Time Altitude Azimuth Distance (km) Brightness Sun altitude
Rises 17:31:43 0° 22° (NNE) 2,625 10.5 -19.6°
Reaches altitude 10° 17:34:05 10° 35° (NE) 1,731 9.7 -19.3°
Maximum altitude 17:37:16 26° 94° (E) 1,023 9.0 -18.8°
Drops below altitude 10° 17:40:24 10° 152° (SSE) 1,703 9.8 -18.3°
Sets 17:42:42 0° 166° (SSE) 2,573 10.6 -17.9°
